[[{"header":{"parameterUnit":"m.s-1","parameterCategory":2,"la1":30.2991,"la2":30.254,"lo1":-89.0895,"lo2":-89.0444,"dy":0.0017,"dx":0.0017,"nx":28,"ny":28,"refTime":"2024-06-23T09:00:00:Z","depth":"0","parameterNumber":2,"parameterNumberName":"U-component_of_CURRENTS"},"data":[0,0,0,0,0,0,0,0,0,0,0,0,0,0,0,0,0,0,0,0,0,0,0,0,0,0,0,0,0,0,0,0,0,0,0,0,0,0,0,0,0,0,0,0,0,0,0,0,0,0,0,0,0,0,0,0,0,0,0.3885,0.3887,0,0.4,0.4001,0.4002,0.4022,0.4021,0.4021,0.4021,0.4123,0.4126,0.4129,0,0,0,0,0,0,0,0,0,0,0,0,0,0.3721,0.3723,0.3885,0.3887,0.389,0.4,0.4001,0.4002,0.4022,0.4021,0.4021,0.4021,0.4122,0.4125,0.4129,0,0,0,0,0,0,0,0,0,0,0,0,0,0.3802,0.3724,0.3885,0.3919,0.3923,0.4,0.4001,0.4002,0.4022,0.4021,0.4021,0.4021,0.4121,0.4125,0.4129,0.4164,0,0,0.4143,0.4145,0,0,0,0,0,0,0,0,0.3797,0.3807,0.3912,0.3917,0.3922,0.4003,0.3981,0.4058,0.4022,0.3976,0.4021,0.4021,0.4087,0.4094,0.4106,0.4169,0.4173,0.4143,0.4146,0.4148,0.4149,0,0,0,0,0,0,0,0.3792,0.3803,0.3923,0.3914,0.3921,0.3942,0.3951,0.3995,0.4026,0.398,0.3984,0.4009,0.4088,0.4101,0.4108,0.4174,0.4143,0.4147,0.415,0.4151,0.4271,0.4271,0,0,0,0,0,0,0.3792,0.3797,0.3919,0.3927,0.3866,0.3945,0.3956,0.3971,0.4026,0.4036,0.4009,0.401,0.4094,0.4103,0.4112,0.4175,0.4148,0.4152,0.4154,0.427,0.4271,0.4271,0,0,0,0,0,0,0.3788,0.3801,0.3915,0.3871,0.3888,0.3949,0.3966,0.3974,0.3989,0.405,0.4058,0.4017,0.4094,0.4106,0.4155,0.4178,0.4154,0.4158,0.4269,0.427,0.4271,0.429,0,0,0,0,0,0,0.3782,0.3799,0.3805,0.3871,0.3891,0.3948,0.3967,0.3976,0.4009,0.401,0.4059,0.4068,0.4095,0.4148,0.4159,0.4184,0.4161,0.4269,0.427,0.4271,0.4288,0.4291,0.4293,0,0,0,0,0,0.3776,0.3804,0.3804,0.382,0.3899,0.3949,0.3959,0.3996,0.4009,0.4008,0.4053,0.4067,0.4162,0.4153,0.4165,0.4192,0.4268,0.427,0.4271,0.4287,0.4291,0.4293,0,0,0,0,0,0,0.3745,0.3812,0.3813,0.386,0.389,0.3955,0.3977,0.3997,0.4031,0.4039,0.4082,0.4094,0.4146,0.4162,0.4151,0.4226,0.4214,0.4218,0.4223,0.4226,0.4228,0.4339,0.4165,0,0,0,0,0,0.3738,0.3765,0.3822,0.3851,0.3871,0.3917,0.3944,0.3966,0.4013,0.4027,0.4057,0.4101,0.4161,0.4186,0.4224,0.4271,0.4372,0.4292,0.4295,0.4297,0.4394,0.4536,0.4562,0.4275,0.4275,0.4275,0,0,0.3737,0.3775,0.3791,0.3844,0.3875,0.3931,0.393,0.3972,0.4025,0.4036,0.4095,0.4111,0.4174,0.4227,0.425,0.4244,0.4421,0.4298,0.43,0.4399,0.454,0.4569,0.4595,0.4276,0.4276,0.4276,0,0,0.377,0.3775,0.382,0.3848,0.39,0.3931,0.3942,0.3991,0.4013,0.4079,0.4098,0.415,0.4209,0.4269,0.4314,0.436,0.4429,0.4326,0.4438,0.457,0.4598,0.4623,0.4757,0.4794,0.4328,0.4328,0.4328,0,0.3778,0.3838,0.3836,0.3892,0.3943,0.3937,0.401,0.4033,0.4085,0.4143,0.4103,0.4253,0.4265,0.4406,0.441,0.4377,0.446,0.4417,0.4581,0.4608,0.4634,0.4765,0.4806,0.4329,0.4329,0.4329,0.4329,0,0.3854,0.3901,0.393,0.4001,0.4033,0.4089,0.413,0.4154,0.4181,0.4235,0.4347,0.4367,0.4483,0.4448,0.4459,0.4622,0.4623,0.4565,0.4584,0.4665,0.4796,0.4838,0.433,0.433,0.433,0.4329,0,0,0.3946,0.3981,0.4004,0.4062,0.4105,0.4166,0.4226,0.4331,0.4437,0.4447,0.4611,0.4662,0.4677,0.4731,0.4706,0.4804,0.5007,0.4767,0.4773,0.4924,0.5323,0.5213,0.5248,0.4967,0.4975,0.4981,0.5331,0,0.4038,0.4149,0.4141,0.4273,0.4357,0.4357,0.4432,0.4509,0.4571,0.47,0.475,0.4874,0.4779,0.4835,0.4922,0.499,0.5126,0.4921,0.5208,0.5219,0.513,0.5297,0.5001,0.528,0.5373,0.538,0.5386,0,0.4181,0.4235,0.4356,0.4461,0.4499,0.4562,0.4722,0.4784,0.4922,0.4974,0.509,0.5123,0.5277,0.5168,0.5408,0.5275,0.5351,0.5389,0.5401,0.5352,0.5191,0.5219,0.5354,0.5177,0.5452,0.5446,0.5442,0,0.4325,0.4429,0.4529,0.4563,0.4647,0.4721,0.4777,0.4895,0.4971,0.5167,0.5262,0.5422,0.5522,0.5641,0.5688,0.5584,0.5957,0.5811,0.5809,0.5801,0.5646,0.5609,0.5677,0.6071,0.607,0.6069,0.6068,0,0.4474,0.4575,0.4611,0.4676,0.4819,0.4854,0.5013,0.5084,0.5215,0.5331,0.5417,0.5544,0.565,0.5817,0.5848,0.5978,0.6098,0.5935,0.592,0.5632,0.5592,0.5504,0.5418,0.6082,0.6079,0.6077,0.6075,0,0.4595,0.4625,0.4753,0.4845,0.4884,0.4989,0.5084,0.5179,0.5314,0.5472,0.554,0.5717,0.5918,0.6025,0.6246,0.6182,0.6136,0.6333,0.5988,0.5925,0.5663,0.5588,0.5607,0.5457,0.64,0.64,0.64,0,0.4632,0.4716,0.4837,0.4885,0.4916,0.5043,0.5094,0.5214,0.5289,0.5543,0.5617,0.5886,0.5985,0.628,0.6283,0.6403,0.6198,0.619,0.5933,0.571,0.5617,0.5403,0.5258,0.5734,0.5729,0.5724,0.5721,0,0.468,0.4734,0.4793,0.4893,0.4967,0.5042,0.5136,0.52,0.5336,0.5449,0.5609,0.5729,0.6015,0.5976,0.6149,0.6162,0.5845,0.6098,0.5968,0.5238,0.4918,0.4739,0.5451,0.568,0.5684,0.5687,0.5689,0.5691,0.4661,0.4704,0.4768,0.485,0.4918,0.4961,0.4953,0.5042,0.5108,0.5184,0.5447,0.5501,0.5627,0.5792,0.5792,0.5593,0.5625,0.5373,0.5354,0.52,0.4886,0.5523,0.5641,0.5645,0.5648,0.5651,0.5653,0,0.4568,0.4621,0.4702,0.4751,0.4736,0.4834,0.4882,0.4809,0.4765,0.4941,0.5019,0.506,0.5037,0.512,0.5048,0.4859,0.4631,0.4729,0.4349,0.4284,0.4954,0.4745,0.4546,0.4546,0.4547,0.4547,0.4547,0.4547,0.4518,0.4535,0.4576,0.4518,0.4538,0.4436,0.4408,0.4338,0.4384,0.4305,0.4294,0.4432,0.4603,0.4608,0.4411,0.4308,0.3986,0.3798,0.3869,0.4295,0.435,0.4403,0.4187,0.3874,0.3874,0.2965,0.2958,0.2952]},{"header":{"parameterUnit":"m.s-1","parameterCategory":2,"la1":30.2991,"la2":30.254,"lo1":-89.0895,"lo2":-89.0444,"dy":0.0017,"dx":0.0017,"nx":28,"ny":28,"refTime":"2024-06-23T09:00:00:Z","depth":"0","parameterNumber":3,"parameterNumberName":"V-component_of_CURRENTS"},"data":[0,0,0,0,0,0,0,0,0,0,0,0,0,0,0,0,0,0,0,0,0,0,0,0,0,0,0,0,0,0,0,0,0,0,0,0,0,0,0,0,0,0,0,0,0,0,0,0,0,0,0,0,0,0,0,0,0,0,-0.0401,-0.0402,0,-0.0477,-0.0478,-0.0479,-0.0556,-0.0557,-0.0558,-0.0559,-0.0675,-0.0677,-0.0679,0,0,0,0,0,0,0,0,0,0,0,0,0,-0.0371,-0.0371,-0.0401,-0.0402,-0.0403,-0.0477,-0.0478,-0.0479,-0.0556,-0.0557,-0.0558,-0.0559,-0.0674,-0.0677,-0.0679,0,0,0,0,0,0,0,0,0,0,0,0,0,-0.0409,-0.0371,-0.04,-0.045,-0.0456,-0.0477,-0.0478,-0.0479,-0.0555,-0.0557,-0.0559,-0.056,-0.0674,-0.0677,-0.068,-0.0666,0,0,-0.0689,-0.069,0,0,0,0,0,0,0,0,-0.0406,-0.0409,-0.0442,-0.0447,-0.0453,-0.0509,-0.051,-0.0544,-0.0555,-0.0517,-0.0559,-0.0561,-0.0622,-0.063,-0.0639,-0.0671,-0.0676,-0.0689,-0.0691,-0.0693,-0.0693,0,0,0,0,0,0,0,-0.0403,-0.0407,-0.043,-0.0443,-0.045,-0.0486,-0.0493,-0.0517,-0.0559,-0.052,-0.0526,-0.0535,-0.0626,-0.0636,-0.0642,-0.0678,-0.0689,-0.0692,-0.0694,-0.0695,-0.0696,-0.0695,0,0,0,0,0,0,-0.0391,-0.0404,-0.0428,-0.0433,-0.0434,-0.0485,-0.0493,-0.0489,-0.0559,-0.0571,-0.0534,-0.0538,-0.063,-0.0639,-0.0647,-0.0597,-0.0692,-0.0695,-0.0697,-0.0698,-0.0696,-0.0694,0,0,0,0,0,0,-0.039,-0.0392,-0.0425,-0.0422,-0.0429,-0.0484,-0.0479,-0.0489,-0.05,-0.0569,-0.0582,-0.0534,-0.0631,-0.0642,-0.0662,-0.0603,-0.0697,-0.07,-0.07,-0.0697,-0.0695,-0.0521,0,0,0,0,0,0,-0.0388,-0.039,-0.038,-0.042,-0.0428,-0.0413,-0.0478,-0.049,-0.0503,-0.051,-0.0572,-0.0585,-0.0633,-0.0656,-0.0665,-0.0609,-0.0702,-0.0703,-0.0699,-0.0696,-0.0529,-0.0512,-0.0498,0,0,0,0,0,-0.0387,-0.0346,-0.0378,-0.0381,-0.0412,-0.0411,-0.0416,-0.0463,-0.0501,-0.0483,-0.0538,-0.0583,-0.064,-0.0657,-0.0668,-0.0612,-0.0704,-0.07,-0.0696,-0.0535,-0.0515,-0.0499,0,0,0,0,0,0,-0.0319,-0.0352,-0.0387,-0.0359,-0.038,-0.0424,-0.0411,-0.045,-0.0479,-0.0493,-0.0565,-0.058,-0.057,-0.062,-0.0638,-0.0604,-0.0677,-0.0675,-0.0551,-0.0533,-0.0518,-0.0449,-0.0705,0,0,0,0,0,-0.0302,-0.0279,-0.0328,-0.0298,-0.031,-0.0363,-0.037,-0.0403,-0.0438,-0.0453,-0.0497,-0.0543,-0.0558,-0.0572,-0.0598,-0.0583,-0.0586,-0.0554,-0.0539,-0.0525,-0.0477,-0.0437,-0.0412,-0.068,-0.068,-0.0681,0,0,-0.0265,-0.0279,-0.0267,-0.0282,-0.0307,-0.0282,-0.037,-0.0367,-0.0341,-0.0459,-0.0436,-0.049,-0.0543,-0.0522,-0.0522,-0.0559,-0.0452,-0.052,-0.0508,-0.0466,-0.043,-0.0403,-0.038,-0.0678,-0.0678,-0.0679,0,0,-0.0162,-0.0197,-0.0146,-0.0156,-0.0185,-0.0216,-0.021,-0.0255,-0.0271,-0.0266,-0.0336,-0.0348,-0.039,-0.04,-0.0414,-0.033,-0.0371,-0.0353,-0.0217,-0.0179,-0.0156,-0.0135,-0.0101,-0.0079,-0.0346,-0.0346,-0.0346,0,-0.012,-0.0066,-0.0128,-0.0085,-0.0074,-0.0175,-0.0117,-0.0139,-0.018,-0.0165,-0.0235,-0.0245,-0.0314,-0.0249,-0.0235,-0.0287,-0.028,-0.0281,-0.0154,-0.0134,-0.0116,-0.0087,-0.0064,-0.0337,-0.0338,-0.0339,-0.034,0,0.0014,0.0051,0.0084,0.0105,0.0109,0.0142,0.0093,0.0097,0.0049,0.0029,0.0065,-0.0019,-0.0015,-0.0049,-0.0124,-0.0022,-0.0064,-0.0136,-0.019,-0.0077,-0.0056,-0.0035,-0.0324,-0.0327,-0.033,-0.0332,0,0,0.0131,0.017,0.0184,0.0221,0.0208,0.0229,0.0276,0.0303,0.0352,0.0303,0.0394,0.0335,0.0284,0.0266,0.0179,0.0191,0.0292,0.0087,0.0085,0.0142,0.0386,0.0309,0.0323,0.0239,0.0244,0.0247,0.0351,0,0.0255,0.0377,0.0363,0.0481,0.0533,0.0475,0.0534,0.054,0.0522,0.0578,0.0519,0.0555,0.0406,0.0409,0.0408,0.0319,0.0354,0.0272,0.0251,0.0252,0.0187,0.0347,0.0272,0.0354,0.037,0.0373,0.0376,0,0.0394,0.0456,0.0592,0.0666,0.0683,0.0738,0.081,0.0847,0.0883,0.0876,0.0906,0.0846,0.0874,0.0716,0.0694,0.0647,0.0555,0.0475,0.0475,0.0368,0.0214,0.0241,0.039,0.0131,0.0406,0.0404,0.0402,0,0.051,0.0619,0.0734,0.0759,0.0823,0.0884,0.0914,0.0952,0.1006,0.1081,0.1145,0.1142,0.1168,0.1069,0.0881,0.0805,0.0849,0.0718,0.0584,0.0576,0.0495,0.0472,0.0414,0.0751,0.0751,0.0751,0.075,0,0.0649,0.0744,0.0799,0.0863,0.0994,0.1002,0.1139,0.1161,0.1245,0.1367,0.1313,0.1427,0.1257,0.1232,0.1028,0.0892,0.0976,0.0676,0.0625,0.0548,0.0531,0.0281,0.0148,0.0755,0.0754,0.0753,0.0752,0,0.0762,0.0805,0.0929,0.1018,0.1053,0.1142,0.1252,0.1348,0.1417,0.1589,0.1633,0.1683,0.1668,0.1475,0.1337,0.1105,0.0803,0.0874,0.0793,0.0731,0.0321,0.0201,0.0131,0.0032,0.0768,0.0767,0.0766,0,0.0834,0.0915,0.1023,0.109,0.1137,0.1258,0.1344,0.1422,0.1533,0.1752,0.1861,0.1931,0.2002,0.1779,0.1402,0.1107,0.0843,0.0802,0.0634,0.0355,0.0185,0.0074,-0.0012,0.0597,0.0595,0.0593,0.0592,0,0.0954,0.0982,0.1061,0.1191,0.1296,0.1423,0.156,0.1679,0.1819,0.1997,0.2238,0.2333,0.2148,0.186,0.143,0.1158,0.0593,0.0755,0.0504,0.0111,-0.0043,-0.0184,0.046,0.0577,0.0578,0.0579,0.058,0.0581,0.1013,0.1075,0.1162,0.1291,0.1414,0.1584,0.1716,0.1891,0.2121,0.2409,0.2484,0.2662,0.22,0.163,0.1256,0.047,0.052,0.0182,0.0086,0.002,-0.0148,0.0466,0.0481,0.0482,0.0483,0.0484,0.0484,0,0.1072,0.114,0.1257,0.1411,0.1561,0.1617,0.1856,0.2016,0.2313,0.2572,0.2782,0.2633,0.2041,0.1406,0.0395,-0.0128,-0.0323,-0.0413,-0.0596,-0.0632,-0.0053,-0.014,-0.0305,-0.0305,-0.0305,-0.0304,-0.0304,-0.0304,0.1107,0.1207,0.1269,0.1508,0.1632,0.1853,0.2004,0.2256,0.2472,0.2773,0.2873,0.2917,0.2389,0.0681,-0.0521,-0.0794,-0.11,-0.1186,-0.1287,-0.095,-0.0903,-0.0859,-0.0974,-0.131,-0.1311,-0.1866,-0.1872,-0.1876]}],[{"header":{"parameterUnit":"m.s-1","parameterCategory":2,"la1":30.2991,"la2":30.254,"lo1":-89.0895,"lo2":-89.0444,"dy":0.0017,"dx":0.0017,"nx":28,"ny":28,"refTime":"2024-06-23T09:00:00:Z","depth":"2","parameterNumber":2,"parameterNumberName":"U-component_of_CURRENTS"},"data":[0,0,0,0,0,0,0,0,0,0,0,0,0,0,0,0,0,0,0,0,0,0,0,0,0,0,0,0,0,0,0,0,0,0,0,0,0,0,0,0,0,0,0,0,0,0,0,0,0,0,0,0,0,0,0,0,0,0,0.3196,0.3199,0,0.3296,0.3295,0.3294,0.3394,0.3398,0.3402,0.3405,0.3513,0.3512,0.3512,0,0,0,0,0,0,0,0,0,0,0,0,0,0.2994,0.2996,0.3195,0.3199,0.3203,0.3296,0.3295,0.3294,0.3394,0.3398,0.3403,0.3407,0.3513,0.3512,0.3512,0,0,0,0,0,0,0,0,0,0,0,0,0,0.3063,0.2996,0.3195,0.3282,0.3293,0.3296,0.3295,0.3293,0.3393,0.3398,0.3404,0.3409,0.3513,0.3512,0.3512,0.3397,0,0,0.3509,0.3509,0,0,0,0,0,0,0,0,0.3059,0.3067,0.3266,0.3277,0.3289,0.336,0.3265,0.3337,0.3391,0.3328,0.3405,0.3412,0.3475,0.3477,0.3448,0.3402,0.3406,0.3509,0.3509,0.3508,0.3508,0,0,0,0,0,0,0,0.3054,0.3063,0.3209,0.327,0.3284,0.3286,0.3299,0.3276,0.335,0.3334,0.3348,0.3397,0.3478,0.3448,0.3452,0.3408,0.3509,0.3508,0.3508,0.3508,0.3523,0.3524,0,0,0,0,0,0,0.3091,0.3058,0.3207,0.3215,0.3213,0.3287,0.3301,0.3311,0.3351,0.3369,0.3393,0.3402,0.3447,0.3453,0.3456,0.3558,0.3508,0.3507,0.3507,0.3522,0.3523,0.3524,0,0,0,0,0,0,0.3085,0.3101,0.3203,0.3161,0.3178,0.3288,0.3296,0.3311,0.3339,0.34,0.3415,0.3417,0.3452,0.3458,0.349,0.3555,0.3507,0.3506,0.3521,0.3523,0.3524,0.361,0,0,0,0,0,0,0.3078,0.3097,0.3153,0.3163,0.3183,0.3244,0.3294,0.331,0.337,0.3384,0.3423,0.3436,0.3456,0.3491,0.3489,0.3553,0.3506,0.352,0.3522,0.3523,0.3606,0.3614,0.3621,0,0,0,0,0,0.3069,0.3098,0.3153,0.3176,0.3242,0.3247,0.3253,0.3333,0.3367,0.3373,0.3412,0.3438,0.3503,0.349,0.3488,0.3553,0.3519,0.3521,0.3523,0.3603,0.3613,0.3621,0,0,0,0,0,0,0.3063,0.3114,0.3174,0.323,0.327,0.3276,0.3306,0.3339,0.3362,0.3421,0.3421,0.3434,0.3496,0.3487,0.3473,0.3561,0.3524,0.3526,0.3586,0.3595,0.3602,0.368,0.3505,0,0,0,0,0,0.3086,0.3098,0.3166,0.3209,0.3229,0.3264,0.3294,0.3368,0.3387,0.3405,0.3406,0.3444,0.3482,0.3514,0.3527,0.3546,0.359,0.3594,0.3601,0.3608,0.3669,0.3757,0.378,0.3531,0.3531,0.3531,0,0,0.3089,0.3132,0.3142,0.3209,0.3229,0.3273,0.3287,0.3362,0.3425,0.3411,0.3446,0.3459,0.3488,0.3541,0.3568,0.3558,0.3694,0.361,0.3616,0.3675,0.3762,0.3787,0.381,0.3532,0.3532,0.3532,0,0,0.3095,0.3136,0.3164,0.3197,0.3308,0.3323,0.3351,0.3384,0.343,0.3483,0.35,0.3559,0.356,0.3614,0.3643,0.3688,0.3723,0.3682,0.3798,0.3882,0.3905,0.3926,0.3993,0.4019,0.3697,0.3697,0.3697,0,0.3148,0.3182,0.3175,0.3231,0.3288,0.3339,0.341,0.3434,0.3484,0.3525,0.3537,0.361,0.362,0.3727,0.376,0.3718,0.3758,0.3763,0.3898,0.3919,0.3939,0.4003,0.4031,0.3701,0.3701,0.37,0.37,0,0.3167,0.3238,0.3238,0.3318,0.3354,0.3423,0.3487,0.3543,0.3601,0.3633,0.3746,0.3768,0.3831,0.3832,0.3823,0.396,0.3938,0.3889,0.3886,0.3971,0.403,0.4058,0.3707,0.3706,0.3705,0.3703,0,0,0.3212,0.3258,0.3276,0.3343,0.3437,0.3465,0.3568,0.3662,0.3744,0.3817,0.3918,0.3994,0.4012,0.4048,0.4041,0.4126,0.4276,0.4082,0.4084,0.417,0.4466,0.4283,0.4295,0.4249,0.4255,0.426,0.4445,0,0.3275,0.3369,0.338,0.3486,0.3544,0.362,0.3682,0.379,0.3855,0.3935,0.4045,0.4113,0.4087,0.4148,0.4234,0.4258,0.4357,0.4232,0.4355,0.436,0.4205,0.4324,0.3982,0.4104,0.4472,0.4476,0.4479,0,0.3354,0.3392,0.3495,0.3603,0.3633,0.3707,0.3851,0.3919,0.4044,0.4122,0.4247,0.4263,0.4417,0.4373,0.4554,0.4473,0.4506,0.4529,0.4535,0.437,0.423,0.4081,0.414,0.4526,0.4522,0.4518,0.4515,0,0.3411,0.3512,0.3586,0.3619,0.3713,0.3812,0.3883,0.3994,0.4056,0.4236,0.4309,0.4466,0.4578,0.4666,0.4731,0.4647,0.4928,0.4793,0.4677,0.4663,0.4405,0.4357,0.496,0.496,0.4959,0.4959,0.4958,0,0.3503,0.3578,0.3626,0.3671,0.3757,0.385,0.3969,0.4073,0.4223,0.4289,0.4391,0.4489,0.4663,0.4798,0.4826,0.4871,0.5015,0.4757,0.4721,0.4415,0.4369,0.4753,0.4726,0.4966,0.4964,0.4963,0.4962,0,0.3538,0.3602,0.3635,0.3721,0.3788,0.3819,0.3984,0.4046,0.4223,0.4338,0.4406,0.4576,0.4711,0.4859,0.5034,0.4975,0.5038,0.5025,0.4655,0.457,0.4679,0.4655,0.4858,0.4853,0.4849,0.4846,0.4844,0,0.3574,0.3583,0.3604,0.364,0.3686,0.379,0.3866,0.4035,0.4077,0.4344,0.4365,0.4583,0.4646,0.4848,0.4832,0.4891,0.5006,0.4591,0.4339,0.4736,0.4682,0.4663,0.4644,0.4037,0.4027,0.402,0.4014,0,0.3481,0.3447,0.3413,0.3508,0.3574,0.3635,0.3768,0.3816,0.4005,0.4135,0.4272,0.4374,0.4513,0.439,0.4504,0.4465,0.4534,0.4428,0.5023,0.4081,0.3967,0.391,0.3919,0.3948,0.3955,0.396,0.3963,0.3966,0.3337,0.3247,0.3217,0.3309,0.337,0.3467,0.3515,0.3584,0.366,0.3772,0.3987,0.4016,0.408,0.3965,0.3903,0.3863,0.4098,0.3928,0.395,0.398,0.3818,0.3699,0.3602,0.3606,0.361,0.3614,0.3617,0,0.3121,0.3102,0.3105,0.3135,0.3152,0.3337,0.342,0.3342,0.3329,0.3461,0.3526,0.3293,0.3249,0.3344,0.3164,0.3151,0.3117,0.3036,0.2977,0.3045,0.3106,0.2896,0.2438,0.2434,0.243,0.2427,0,0,0.2994,0.2904,0.2912,0.2895,0.3036,0.3033,0.3101,0.2925,0.2895,0.2801,0.2841,0.3027,0.3227,0.2763,0.2718,0.2561,0.2773,0.2463,0.3417,0.3416,0.3471,0.3639,0.3396,0,0,0,0,0]},{"header":{"parameterUnit":"m.s-1","parameterCategory":2,"la1":30.2991,"la2":30.254,"lo1":-89.0895,"lo2":-89.0444,"dy":0.0017,"dx":0.0017,"nx":28,"ny":28,"refTime":"2024-06-23T09:00:00:Z","depth":"2","parameterNumber":3,"parameterNumberName":"V-component_of_CURRENTS"},"data":[0,0,0,0,0,0,0,0,0,0,0,0,0,0,0,0,0,0,0,0,0,0,0,0,0,0,0,0,0,0,0,0,0,0,0,0,0,0,0,0,0,0,0,0,0,0,0,0,0,0,0,0,0,0,0,0,0,0,-0.0211,-0.0214,0,-0.028,-0.0278,-0.0277,-0.0445,-0.0451,-0.0457,-0.0462,-0.0704,-0.0705,-0.0706,0,0,0,0,0,0,0,0,0,0,0,0,0,-0.0192,-0.019,-0.0211,-0.0214,-0.0217,-0.028,-0.0278,-0.0277,-0.0444,-0.0451,-0.0458,-0.0465,-0.0704,-0.0705,-0.0706,0,0,0,0,0,0,0,0,0,0,0,0,0,-0.0201,-0.0189,-0.0211,-0.0326,-0.0339,-0.028,-0.0278,-0.0277,-0.0443,-0.0451,-0.046,-0.0468,-0.0703,-0.0705,-0.0706,-0.0543,0,0,-0.0711,-0.0712,0,0,0,0,0,0,0,0,-0.02,-0.0198,-0.0306,-0.0319,-0.0333,-0.0384,-0.0362,-0.0383,-0.044,-0.0377,-0.0462,-0.0472,-0.0623,-0.0631,-0.0588,-0.0554,-0.0564,-0.0711,-0.0712,-0.0713,-0.0713,0,0,0,0,0,0,0,-0.0199,-0.0196,-0.0213,-0.0309,-0.0326,-0.0366,-0.0374,-0.0364,-0.0435,-0.0384,-0.0402,-0.0446,-0.0629,-0.0585,-0.0596,-0.0568,-0.0711,-0.0713,-0.0714,-0.0714,-0.0603,-0.0599,0,0,0,0,0,0,-0.0231,-0.0194,-0.0212,-0.0218,-0.0314,-0.0361,-0.0369,-0.0339,-0.0432,-0.046,-0.0438,-0.0454,-0.0578,-0.0593,-0.0605,-0.0618,-0.0713,-0.0715,-0.0715,-0.0607,-0.0602,-0.0598,0,0,0,0,0,0,-0.0229,-0.0228,-0.0209,-0.0233,-0.0237,-0.0355,-0.0318,-0.0336,-0.0341,-0.0476,-0.0505,-0.0436,-0.0586,-0.0603,-0.0628,-0.0624,-0.0715,-0.0717,-0.0611,-0.0605,-0.06,-0.0518,0,0,0,0,0,0,-0.0226,-0.0224,-0.0222,-0.0232,-0.0238,-0.0209,-0.0313,-0.0332,-0.0365,-0.0385,-0.0481,-0.051,-0.0594,-0.0625,-0.063,-0.0628,-0.0718,-0.0616,-0.0608,-0.0602,-0.0525,-0.051,-0.0496,0,0,0,0,0,-0.0223,-0.0177,-0.0219,-0.0225,-0.0224,-0.0211,-0.0212,-0.0312,-0.0356,-0.0343,-0.0408,-0.0509,-0.0584,-0.0622,-0.0629,-0.0627,-0.062,-0.0611,-0.0602,-0.0532,-0.0513,-0.0497,0,0,0,0,0,0,-0.0176,-0.0192,-0.0239,-0.0205,-0.0234,-0.0251,-0.0254,-0.0289,-0.0308,-0.0356,-0.0445,-0.0474,-0.05,-0.0533,-0.0573,-0.0563,-0.062,-0.0612,-0.0564,-0.0547,-0.0533,-0.0527,-0.0719,0,0,0,0,0,-0.0159,-0.0118,-0.0165,-0.0137,-0.0148,-0.0183,-0.0195,-0.0263,-0.029,-0.0308,-0.0361,-0.0414,-0.0441,-0.048,-0.0506,-0.0476,-0.0508,-0.0476,-0.0461,-0.045,-0.0442,-0.0443,-0.0429,-0.0569,-0.0569,-0.0569,0,0,-0.0139,-0.0143,-0.0128,-0.0126,-0.0141,-0.013,-0.0204,-0.0227,-0.023,-0.0327,-0.0318,-0.0362,-0.0416,-0.0418,-0.0431,-0.0468,-0.0424,-0.0438,-0.0429,-0.0428,-0.0432,-0.042,-0.0408,-0.0563,-0.0564,-0.0565,0,0,-0.0067,-0.0066,-0.0025,-0.0032,-0.009,-0.0105,-0.011,-0.0131,-0.0164,-0.0151,-0.0231,-0.0261,-0.0274,-0.0326,-0.035,-0.0244,-0.0341,-0.0255,-0.0195,-0.0195,-0.0185,-0.0177,-0.0206,-0.0201,-0.0257,-0.0256,-0.0256,0,-0.0072,-0.0004,-0.0016,0.0011,-0.0003,-0.0082,-0.006,-0.0066,-0.01,-0.0108,-0.0164,-0.0159,-0.0231,-0.0224,-0.0217,-0.0222,-0.0241,-0.0274,-0.0182,-0.0174,-0.0168,-0.0199,-0.0195,-0.0251,-0.0252,-0.0252,-0.0253,0,0.0026,0.0055,0.009,0.0106,0.0106,0.0113,0.0068,0.0072,0.0032,-0.0002,-0.0003,-0.0052,-0.0062,-0.0083,-0.0134,-0.0105,-0.0141,-0.0165,-0.0242,-0.015,-0.0188,-0.0185,-0.0244,-0.0246,-0.0247,-0.0249,0,0,0.0068,0.0137,0.0142,0.0158,0.0144,0.016,0.0178,0.0169,0.0172,0.0137,0.0174,0.0122,0.0082,0.006,0.0009,-0.0007,0.0002,-0.0066,-0.0068,-0.0123,-0.0015,-0.0098,-0.0104,-0.001,-0.0009,-0.0008,-0.0066,0,0.0123,0.0207,0.0226,0.0289,0.032,0.0284,0.0324,0.0292,0.0256,0.0277,0.0215,0.0221,0.0141,0.0136,0.0114,0.004,0.0017,0.0019,-0.0071,-0.0074,-0.0183,-0.01,-0.0064,-0.0117,-0.0063,-0.0063,-0.0063,0,0.0186,0.0241,0.0318,0.0381,0.0392,0.0425,0.0452,0.0463,0.0447,0.0426,0.0412,0.036,0.0346,0.0272,0.0192,0.0199,0.0103,0.0034,0.003,-0.0075,-0.0151,-0.0195,-0.0115,-0.0059,-0.0059,-0.0059,-0.006,0,0.021,0.0297,0.0367,0.0385,0.0447,0.0487,0.0514,0.0505,0.051,0.0525,0.0526,0.05,0.0518,0.0405,0.0265,0.0227,0.0176,0.0103,-0.0061,-0.007,-0.0071,-0.0082,0.005,0.005,0.005,0.0051,0.0051,0,0.0243,0.0273,0.0392,0.0428,0.0498,0.0539,0.0597,0.0602,0.0634,0.0653,0.0609,0.0661,0.0556,0.0503,0.0331,0.0162,0.0231,-0.0038,-0.0079,-0.0041,-0.0048,-0.0022,-0.003,0.0048,0.0049,0.0049,0.005,0,0.0169,0.0262,0.034,0.0468,0.0505,0.0543,0.0634,0.0664,0.0703,0.0741,0.0758,0.0803,0.0745,0.0586,0.045,0.0267,0.0093,0.0013,0.005,0.0013,-0.0185,-0.0187,-0.0208,-0.0211,-0.0214,-0.0216,-0.0218,0,0.0118,0.0172,0.0342,0.0397,0.044,0.053,0.0583,0.0671,0.072,0.0829,0.0864,0.0874,0.0908,0.0687,0.04,0.0099,0.0073,-0.0096,-0.0183,-0.0168,-0.0206,-0.0203,-0.0202,-0.015,-0.0151,-0.0152,-0.0153,0,0.0029,0.0108,0.0195,0.0329,0.0419,0.0511,0.0623,0.0698,0.0818,0.0944,0.1133,0.1195,0.0965,0.0772,0.0356,0.0135,-0.0057,-0.0134,-0.0069,-0.0106,-0.0122,-0.0157,-0.0155,-0.0161,-0.016,-0.016,-0.0159,-0.0159,-0.0043,-0.0006,0.0171,0.027,0.0384,0.0531,0.0658,0.0851,0.1074,0.1311,0.1328,0.1453,0.1121,0.0645,0.0272,-0.0137,-0.015,-0.0302,-0.0294,-0.0287,-0.0285,-0.0306,-0.0381,-0.0382,-0.0382,-0.0382,-0.0383,0,-0.0087,-0.0016,0.0092,0.0296,0.0438,0.0492,0.071,0.0925,0.1297,0.147,0.1681,0.1395,0.1125,0.0715,0.01,-0.0291,-0.029,-0.041,-0.0311,-0.0301,-0.0293,-0.0287,-0.0387,-0.0388,-0.0388,-0.0389,0,0,-0.0094,0.001,0.0093,0.0346,0.0465,0.0707,0.086,0.1224,0.1455,0.1756,0.1836,0.1792,0.1268,0.0818,0.0308,-0.0027,-0.0075,-0.0101,-0.0061,0.0126,0.0139,-0.0201,-0.018,0,0,0,0,0]}],[{"header":{"parameterUnit":"m.s-1","parameterCategory":2,"la1":30.2991,"la2":30.254,"lo1":-89.0895,"lo2":-89.0444,"dy":0.0017,"dx":0.0017,"nx":28,"ny":28,"refTime":"2024-06-23T09:00:00:Z","depth":"4","parameterNumber":2,"parameterNumberName":"U-component_of_CURRENTS"},"data":[0,0,0,0,0,0,0,0,0,0,0,0,0,0,0,0,0,0,0,0,0,0,0,0,0,0,0,0,0,0,0,0,0,0,0,0,0,0,0,0,0,0,0,0,0,0,0,0,0,0,0,0,0,0,0,0,0,0,0.1231,0.1232,0,0.1343,0.1345,0.1347,0.1422,0.1422,0.1422,0.1422,0.146,0.1461,0.1462,0,0,0,0,0,0,0,0,0,0,0,0,0,0.1096,0.1099,0.1231,0.1232,0.1233,0.1343,0.1345,0.1347,0.1422,0.1422,0.1422,0.1422,0.146,0.1461,0.1462,0,0,0,0,0,0,0,0,0,0,0,0,0,0.118,0.1099,0.1231,0.1281,0.1286,0.1343,0.1345,0.1348,0.1422,0.1422,0.1422,0.1422,0.146,0.1461,0.1462,0.1465,0,0,0.1466,0.1467,0,0,0,0,0,0,0,0,0.1175,0.1185,0.1273,0.1278,0.1284,0.1366,0.1311,0.1382,0.1422,0.1374,0.1422,0.1423,0.1419,0.1424,0.1451,0.1467,0.1469,0.1466,0.1467,0.1468,0.1468,0,0,0,0,0,0,0,0.1169,0.1181,0.128,0.1274,0.128,0.1302,0.1315,0.1326,0.1395,0.1379,0.1383,0.139,0.1422,0.145,0.1452,0.1469,0.1466,0.1467,0.1468,0.1469,0.1657,0.1661,0,0,0,0,0,0,0.1147,0.1176,0.1276,0.1283,0.1224,0.1304,0.1319,0.1342,0.1397,0.1405,0.1389,0.1393,0.1447,0.145,0.1453,0.1595,0.1468,0.1469,0.147,0.1653,0.1658,0.1662,0,0,0,0,0,0,0.1144,0.1156,0.1271,0.1227,0.1243,0.1306,0.1332,0.1344,0.1413,0.1405,0.1413,0.145,0.1448,0.1452,0.1513,0.1591,0.1469,0.1471,0.1648,0.1654,0.166,0.179,0,0,0,0,0,0,0.114,0.1154,0.1184,0.1226,0.1245,0.1334,0.1332,0.1346,0.1412,0.1419,0.1459,0.1461,0.1448,0.1512,0.1515,0.1591,0.1472,0.1642,0.1651,0.1658,0.1781,0.18,0.1817,0,0,0,0,0,0.1135,0.1183,0.1185,0.1197,0.1277,0.1336,0.135,0.1395,0.1415,0.1458,0.1493,0.1462,0.1565,0.1516,0.1518,0.1597,0.1638,0.1648,0.1657,0.1772,0.1796,0.1817,0,0,0,0,0,0,0.1145,0.1196,0.1199,0.1261,0.13,0.1348,0.1401,0.1423,0.1488,0.15,0.15,0.1506,0.1608,0.158,0.1526,0.168,0.1603,0.1613,0.169,0.1712,0.173,0.1693,0.1473,0,0,0,0,0,0.1154,0.1216,0.1241,0.1301,0.1321,0.1366,0.1404,0.1425,0.1474,0.1507,0.1546,0.1587,0.1644,0.1658,0.1705,0.1759,0.1755,0.1819,0.1837,0.1852,0.1829,0.1949,0.1976,0.1693,0.1693,0.1693,0,0,0.1178,0.1215,0.1251,0.1309,0.135,0.1404,0.1394,0.146,0.1515,0.1495,0.1616,0.1662,0.1682,0.1773,0.1813,0.1755,0.193,0.1865,0.1877,0.1844,0.1962,0.1989,0.2013,0.17,0.1699,0.1698,0,0,0.125,0.1287,0.135,0.1388,0.144,0.1463,0.1489,0.1555,0.1598,0.1679,0.1716,0.1798,0.1866,0.191,0.193,0.2069,0.2045,0.2105,0.2138,0.2258,0.2281,0.2302,0.2318,0.2338,0.2088,0.2088,0.2089,0,0.1256,0.1346,0.1378,0.144,0.1474,0.1497,0.1551,0.1605,0.1691,0.1732,0.1731,0.19,0.1927,0.2034,0.2092,0.2109,0.2141,0.2049,0.228,0.23,0.2319,0.233,0.2352,0.2096,0.2095,0.2094,0.2093,0,0.1376,0.1434,0.1482,0.1564,0.1606,0.1663,0.1703,0.1778,0.1823,0.1864,0.1993,0.2041,0.2136,0.2176,0.2166,0.2327,0.2295,0.2312,0.2216,0.2355,0.2358,0.2378,0.2106,0.2104,0.2102,0.21,0,0,0.14,0.1528,0.1558,0.1572,0.1664,0.1694,0.1804,0.188,0.1943,0.2036,0.2132,0.2246,0.2284,0.2311,0.2344,0.2409,0.2575,0.2412,0.2415,0.2409,0.2786,0.259,0.2591,0.2655,0.266,0.2664,0.2728,0,0.1466,0.1583,0.165,0.1739,0.1759,0.182,0.191,0.1985,0.2047,0.2158,0.2219,0.2338,0.2333,0.2398,0.248,0.2581,0.2636,0.255,0.2665,0.2665,0.2462,0.2612,0.2679,0.2742,0.2747,0.275,0.2752,0,0.1526,0.1597,0.1691,0.1755,0.178,0.1857,0.1961,0.205,0.2194,0.2241,0.236,0.2433,0.2585,0.2554,0.2749,0.2709,0.2754,0.2782,0.2787,0.2561,0.2507,0.2581,0.2787,0.2784,0.2782,0.2779,0.2777,0,0.1443,0.1593,0.166,0.1695,0.1807,0.1873,0.1964,0.2089,0.214,0.2332,0.2396,0.2568,0.2684,0.2796,0.2874,0.2861,0.3031,0.3033,0.2868,0.2851,0.2943,0.292,0.3149,0.3149,0.3149,0.3149,0.3149,0,0.1406,0.144,0.164,0.1657,0.1734,0.1849,0.193,0.2037,0.2189,0.2259,0.2461,0.254,0.2766,0.2883,0.2926,0.2944,0.31,0.2877,0.2878,0.2993,0.2977,0.2955,0.2931,0.3151,0.3151,0.315,0.315,0,0.1223,0.1363,0.1411,0.1604,0.1663,0.1721,0.1877,0.1937,0.2127,0.2237,0.2321,0.258,0.2766,0.2887,0.3063,0.2998,0.3035,0.2986,0.3044,0.3046,0.2751,0.2734,0.2837,0.2831,0.2826,0.2822,0.2818,0,0.1114,0.1147,0.1349,0.139,0.1472,0.1591,0.1663,0.1863,0.193,0.2219,0.2268,0.2533,0.2676,0.2758,0.2915,0.2971,0.2935,0.291,0.2869,0.274,0.2732,0.2723,0.2713,0.281,0.2809,0.2808,0.2807,0,0.0912,0.1022,0.1097,0.1206,0.1294,0.137,0.1516,0.1544,0.1801,0.1979,0.2168,0.2312,0.25,0.2661,0.2712,0.2745,0.292,0.2858,0.2868,0.283,0.2709,0.2704,0.27,0.2789,0.2792,0.2793,0.2794,0,0.0774,0.0795,0.0943,0.1014,0.1103,0.1166,0.1257,0.1406,0.1519,0.1864,0.1917,0.2219,0.2458,0.2541,0.2591,0.2617,0.2599,0.2512,0.254,0.2561,0.2447,0.2252,0.2202,0,0,0,0,0,0.0655,0.0688,0.0741,0.0831,0.091,0.0983,0.1166,0.1286,0.154,0.1605,0.1758,0.1926,0.211,0.2278,0.2258,0.2465,0.2583,0.2428,0.2488,0.2694,0.2714,0.2609,0,0,0,0,0,0,0.0584,0.0628,0.0689,0.0672,0.0699,0.0791,0.0914,0.1097,0.1166,0.1436,0.1561,0.1766,0.1982,0.2078,0.2201,0.2242,0.2234,0.2599,0.2593,0.2683,0.2701,0.2717,0.2616,0,0,0,0,0]},{"header":{"parameterUnit":"m.s-1","parameterCategory":2,"la1":30.2991,"la2":30.254,"lo1":-89.0895,"lo2":-89.0444,"dy":0.0017,"dx":0.0017,"nx":28,"ny":28,"refTime":"2024-06-23T09:00:00:Z","depth":"4","parameterNumber":3,"parameterNumberName":"V-component_of_CURRENTS"},"data":[0,0,0,0,0,0,0,0,0,0,0,0,0,0,0,0,0,0,0,0,0,0,0,0,0,0,0,0,0,0,0,0,0,0,0,0,0,0,0,0,0,0,0,0,0,0,0,0,0,0,0,0,0,0,0,0,0,0,0.043,0.043,0,0.0375,0.0374,0.0373,0.0337,0.0337,0.0337,0.0338,0.0301,0.03,0.0299,0,0,0,0,0,0,0,0,0,0,0,0,0,0.0414,0.0414,0.043,0.043,0.043,0.0375,0.0374,0.0373,0.0337,0.0337,0.0337,0.0338,0.0301,0.03,0.0298,0,0,0,0,0,0,0,0,0,0,0,0,0,0.0391,0.0415,0.043,0.041,0.0408,0.0375,0.0374,0.0372,0.0337,0.0337,0.0338,0.0338,0.0302,0.03,0.0298,0.0277,0,0,0.0292,0.0291,0,0,0,0,0,0,0,0,0.0392,0.039,0.0413,0.0411,0.0409,0.0369,0.0355,0.0343,0.0336,0.0357,0.0338,0.0338,0.0329,0.0325,0.0304,0.0275,0.0273,0.0292,0.0291,0.029,0.029,0,0,0,0,0,0,0,0.0394,0.0392,0.0402,0.0413,0.0411,0.0373,0.037,0.0351,0.0337,0.0355,0.0354,0.0358,0.0327,0.0306,0.0304,0.0273,0.0292,0.0291,0.0289,0.0289,0.0203,0.0202,0,0,0,0,0,0,0.0417,0.0394,0.0404,0.0401,0.0408,0.0374,0.037,0.0376,0.0336,0.0332,0.0357,0.0356,0.0309,0.0306,0.0302,0.0272,0.029,0.0288,0.0287,0.0204,0.0203,0.0202,0,0,0,0,0,0,0.0417,0.0419,0.0406,0.0401,0.0398,0.0375,0.0381,0.0375,0.036,0.0339,0.0334,0.035,0.031,0.0305,0.0284,0.0271,0.0288,0.0286,0.0206,0.0204,0.0202,0.0213,0,0,0,0,0,0,0.0417,0.0419,0.0421,0.0403,0.0399,0.0383,0.0381,0.0374,0.0364,0.0362,0.0331,0.0328,0.031,0.0287,0.0282,0.0268,0.0284,0.0207,0.0205,0.0203,0.0214,0.0212,0.021,0,0,0,0,0,0.0416,0.041,0.0422,0.0423,0.0407,0.0383,0.0376,0.0357,0.0364,0.0347,0.0332,0.0329,0.027,0.0285,0.0279,0.0265,0.0208,0.0205,0.0203,0.0215,0.0212,0.021,0,0,0,0,0,0,0.0393,0.0407,0.0418,0.0415,0.0405,0.0379,0.0363,0.0362,0.0334,0.0339,0.032,0.0314,0.0286,0.0273,0.029,0.0231,0.0236,0.0232,0.0247,0.0244,0.0242,0.0235,0.0283,0,0,0,0,0,0.0397,0.04,0.0405,0.04,0.0399,0.0387,0.0375,0.037,0.0351,0.034,0.0318,0.0294,0.0268,0.0258,0.0228,0.0204,0.0175,0.0188,0.0186,0.0184,0.0173,0.0127,0.012,0.0193,0.0193,0.0193,0,0,0.0382,0.0395,0.0393,0.0396,0.0387,0.0376,0.0378,0.0366,0.0353,0.0342,0.0307,0.0287,0.0259,0.0225,0.0211,0.0216,0.0145,0.0181,0.018,0.0169,0.0123,0.0116,0.011,0.0192,0.0192,0.0192,0,0,0.0357,0.0373,0.037,0.0368,0.0373,0.0365,0.0368,0.0351,0.0338,0.0318,0.0298,0.0269,0.0238,0.0201,0.0185,0.0154,0.0135,0.015,0.0138,0.0094,0.0088,0.0082,0.0028,0.0017,0.0152,0.0152,0.0152,0,0.0347,0.0351,0.0359,0.0359,0.0362,0.0365,0.0362,0.034,0.0315,0.0305,0.0311,0.0242,0.0221,0.0172,0.0157,0.015,0.0122,0.0156,0.0092,0.0086,0.008,0.0026,0.0014,0.0152,0.0152,0.0152,0.0152,0,0.0318,0.0329,0.0324,0.0335,0.033,0.0327,0.0323,0.031,0.0312,0.0293,0.0254,0.0216,0.0179,0.0162,0.0153,0.0094,0.0086,0.0097,0.0104,0.0073,0.0018,0.0006,0.0152,0.0152,0.0152,0.0152,0,0,0.0288,0.0306,0.0304,0.0333,0.0329,0.0336,0.0311,0.0298,0.0301,0.0256,0.0241,0.0174,0.016,0.0138,0.0113,0.0068,-0.0001,0.0067,0.0064,0.0021,-0.0107,-0.0097,-0.011,0.0008,0.0006,0.0004,-0.013,0,0.0272,0.0288,0.0287,0.0304,0.0326,0.0327,0.0317,0.0305,0.0289,0.0266,0.0213,0.0189,0.0149,0.0149,0.0087,0.0034,-0.0032,0.0034,-0.0079,-0.0083,-0.0064,-0.0124,-0.0002,-0.014,-0.0142,-0.0145,-0.0146,0,0.0255,0.0279,0.03,0.0349,0.0357,0.0357,0.0376,0.0368,0.0324,0.0313,0.0255,0.0218,0.0133,0.0124,-0.0027,0.0023,-0.0054,-0.0106,-0.0111,-0.0116,-0.0097,-0.0104,-0.0169,-0.0167,-0.0166,-0.0164,-0.0163,0,0.0277,0.0297,0.0331,0.0342,0.0376,0.0389,0.0402,0.0382,0.0403,0.0343,0.035,0.0228,0.0206,0.0077,-0.0046,-0.0031,-0.0204,-0.019,-0.0273,-0.0273,-0.0242,-0.0234,-0.0318,-0.0317,-0.0317,-0.0317,-0.0316,0,0.0292,0.0328,0.0353,0.0378,0.0438,0.0441,0.0492,0.0477,0.0472,0.0497,0.0386,0.0374,0.0199,0.0084,-0.0049,-0.0205,-0.0215,-0.03,-0.0313,-0.0236,-0.0226,-0.0252,-0.0242,-0.0322,-0.0321,-0.032,-0.0319,0,0.0341,0.0349,0.0412,0.0445,0.0461,0.0517,0.0583,0.0619,0.0594,0.062,0.061,0.0486,0.0333,0.0137,-0.0066,-0.018,-0.0341,-0.0398,-0.0322,-0.0323,-0.0385,-0.0374,-0.0507,-0.0508,-0.0509,-0.0509,-0.051,0,0.0382,0.0411,0.0468,0.0522,0.0548,0.0624,0.0679,0.0686,0.0725,0.0695,0.071,0.0567,0.0461,0.0167,-0.0047,-0.0339,-0.0369,-0.0468,-0.043,-0.0409,-0.0408,-0.0395,-0.0383,-0.0511,-0.0511,-0.0511,-0.0512,0,0.0458,0.047,0.0511,0.0607,0.0681,0.0774,0.084,0.0876,0.0884,0.0862,0.0801,0.0629,0.0448,0.0192,-0.0045,-0.0246,-0.0411,-0.0476,-0.0476,-0.0441,-0.0416,-0.0411,-0.0398,-0.0514,-0.0514,-0.0514,-0.0514,0,0.0514,0.0559,0.0598,0.0691,0.0792,0.0882,0.0916,0.095,0.098,0.0926,0.0906,0.0687,0.0555,0.024,0.0028,-0.0182,-0.0225,-0.0283,-0.0293,-0.0293,-0.0189,-0.0123,-0.0163,0,0,0,0,0,0.0559,0.0598,0.0681,0.0776,0.0877,0.0926,0.1006,0.1027,0.1023,0.1,0.0954,0.0781,0.0457,0.0311,0.0105,0.0007,-0.027,-0.0242,-0.0343,-0.0529,-0.0526,-0.044,0,0,0,0,0,0,0.0589,0.0657,0.0679,0.082,0.0894,0.1007,0.1055,0.1055,0.1039,0.1,0.0834,0.0734,0.0421,0.0577,0.0103,0.0035,-0.0056,-0.04,-0.0404,-0.0531,-0.0528,-0.0526,-0.0436,0,0,0,0,0]}]]